Regional Weather Roundup
Issued by NWS

Home | Current Version | Previous Version | Text Only | Print | Product List | Glossary On
Versions: 1 2 3 4 5 6 7 8 9 10 11 12 13 14 15 16 17 18 19 20 21 22 23 24 25 26 27 28 29 30 31 32 33 34 35 36 37 38 39 40 41 42 43 44 45 46 47 48 49 50
000
ASUS46 KSEW 220210
RWRWA

WASHINGTON REGIONAL WEATHER ROUNDUP
NATIONAL WEATHER SERVICE SEATTLE WA
700 PM PDT THU AUG 21 2014

NOTE:"FAIR" INDICATES FEW OR NO CLOUDS BELOW 12,000 FEET WITH NO
SIGNIFICANT WEATHER AND/OR OBSTRUCTIONS TO VISIBILITY.

WAZ505-507>509-220300-
SEATTLE, TACOMA, EVERETT, AND VICINITY

CITY           SKY/WX    TMP DP  RH WIND       PRES   REMARKS
EVERETT        SUNNY     67  49  52 NW6       29.99S
BOEING FIELD   MOSUNNY   72  52  49 VRB6      29.96S
RENTON         SUNNY     71  52  50 S3        29.96S
SEATAC AIRPORT MOSUNNY   68  50  52 SE3       29.98S
JBLM-MCCHORD   SUNNY     73  49  43 NW7       29.97S
PUYALLUP       NOT AVBL
JBLM-FT LEWIS  SUNNY     73  48  41 W8        29.96S
TACOMA NARROWS MOSUNNY   70  50  49 CALM      29.97S
$$

WAZ001-503-506-510-514-515-220300-
NORTH INTERIOR

CITY           SKY/WX    TMP DP  RH WIND       PRES   REMARKS
BELLINGHAM     SUNNY     65  54  67 S6        29.97S
FRIDAY HARBOR  SUNNY     59  51  75 SE6       29.99S
EASTSOUND      SUNNY     64  54  68 S8        29.95S
PORT ANGELES   MOSUNNY   62  51  67 W12       29.99S
NAS WHIDBEY    MOSUNNY   61  52  72 W5        30.00S
BURLINGTON     MOSUNNY   68  55  64 SW6       29.99S
$$

WAZ020-022-039-040-504-511-512-220300-
SOUTHWEST INTERIOR

CITY           SKY/WX    TMP DP  RH WIND       PRES   REMARKS
SHELTON        SUNNY     70  51  51 SW14      29.94S
OLYMPIA        SUNNY     72  50  45 W9        29.96S
CHEHALIS       FAIR      75  52  43 VRB3      29.96S
KELSO          MOSUNNY   73  43  33 W5        29.99R
VANCOUVER      SUNNY     78  43  28 CALM      29.93S
SCAPPOOSE, OR  SUNNY     76  49  38 E5        29.94S
PORTLAND, OR   MOSUNNY   79  45  29 NE3       29.93F
$$

WAZ021-516-517-220300-
WASHINGTON COAST

CITY           SKY/WX    TMP DP  RH WIND       PRES   REMARKS
FORKS          SUNNY     63  54  72 W5        30.00S
HOQUIAM        CLOUDY    63  57  81 W8        30.00F
ASTORIA, OR    MOSUNNY   63  55  75 SW5       29.99F
$$

WAZ019-023-024-040-518-519-220300-
CASCADE MOUNTAINS AND COLUMBIA GORGE

CITY           SKY/WX    TMP DP  RH WIND       PRES   REMARKS
STAMPEDE PASS  NOT AVBL
TROUTDALE, OR  PTSUNNY   78  45  30 CALM      29.92F
THE DALLES, OR CLEAR     79  43  27 W12G22    29.86S
$$

WAZ026-027-041>044-520-521-220300-
EAST SLOPES

CITY           SKY/WX    TMP DP  RH WIND       PRES   REMARKS
OMAK           MOCLDY    68  50  52 N30G36    29.90R
WENATCHEE      LGT RAIN  80  51  36 E7        29.82R
ELLENSBURG     CLOUDY    73  33  23 NW24G33   29.87R
YAKIMA         PTCLDY    82  41  23 SW7       29.81F
$$

WAZ028-034-035-220300-
COLUMBIA BASIN

CITY           SKY/WX    TMP DP  RH WIND       PRES   REMARKS
EPHRATA        PTCLDY    78  45  30 S10       29.82F
MOSES LAKE     MOCLDY    79  43  27 SE13      29.83F
PASCO          PTCLDY    83  40  21 S8        29.81S
HERMISTON, OR  PTCLDY    80  26  13 W7        29.82S
$$

WAZ036>038-220300-
NORTHEAST WASHINGTON

CITY           SKY/WX    TMP DP  RH WIND       PRES   REMARKS
SPOKANE GEIGER MOCLDY    76  48  37 N17       29.90S
SPOKANE FELTS  MOCLDY    77  50  38 N8        29.89S
FAIRCHILD AFB  MOCLDY    76  43  30 N12       29.92R
COEURDALENE,ID CLOUDY    64  52  63 N16       29.92R
DEER PARK      MOCLDY    69  49  48 N13       29.93R
$$

WAZ029>033-220300-
SOUTHEAST WASHINGTON

CITY           SKY/WX    TMP DP  RH WIND       PRES   REMARKS
PULLMAN        MOCLDY    75  42  30 NW6       29.92S
LEWISTON, ID   MOCLDY    81  45  28 NW9       29.83S
WALLA WALLA    CLOUDY    81  31  16 SW5       29.86F
PENDLETON, OR  PTCLDY    80  11   7 W7        29.86F
$$


USA.gov is the U.S. government's official web portal to all federal, state and local government web resources and services.